Weather in Phatezh

Russia / Kursk Oblast     52°05′30″N   35°51′14″E
temp.,
°C
wind,
m/s
gust,
m/s
humid.,
%
clouds,
%
prec.,
mm/h
press.,
hPa
HPBL,
m
25 february, thu
thu2500:00−6sw3796100 0.2 1031265
03:00−5sw4896100 0.3 1030225
06:00−2wsw4997100 0.1 1027323
09:000wsw5997100 0.1 1025333
12:00+2wsw511100100 0.1 1024280
15:00+2w613100100 0.1 1022329
18:00+2w512100100 0.0 1022283
21:00+2wnw511100100 0.1 1022282
26 february, fri
fri2600:00+2wnw51199100 0.1 1022271
03:00+2w512100100 0.1 1022242
06:00+2w611100100 0.0 1020245
09:00+2w61299100 0.0 1019320
12:00+2wsw714100100 0.0 1017425
15:00+2w714100100 0.0 1016422
18:00+2wnw71499100 0.1 1014375
21:00+2w6129699 0.1 1014361
27 february, sat
sat2700:00+1wnw6129798 0.0 1013439
03:00+1w5119799 0.0 1012416
06:00+1w61297100 0.0 1010495
09:00+1wnw61198100 0.1 1010486
12:00+1wnw6119998 0.1 1010535
15:00+1wnw61110099 0.1 1010531
18:00+1wnw5997100 0.0 1010436
21:000nw4998100 0.4 1011388
28 february, sun
sun2800:000nnw4898100 0.1 1012388
03:00−1nnw3795100 0.4 1013327
06:00−2nnw489696 0.1 1015341
09:00−1n489697 0.3 1017497
12:00−1n589093 0.1 1019649
15:00−1nnw578897 0.2 1020731
18:00−1nnw4895100 0.1 1021493
21:00−2nnw5995100 0.4 1024529
1 march, mon
mon100:00−3nnw3794100 0.1 1025338
03:00−3nnw379598 0.2 1027322
06:00−3nnw3696100 0.1 1028327
09:00−3n369399 0.3 1029474
12:00−2nnw347893 0.1 1031808
15:00−2nnw348292 0.1 1031731
18:00−3wnw339026 0.0 103168
21:00−4w379345 0.0 1031157